Find Globalstar M101

NORAD ID: 100330 Int'l Des: 2026-185F Owner: GLOBL Country: US Constellation: globalstar operational

当前视图

正在加载3D地球...

About Globalstar M101

Globalstar M101 (NORAD 100330) is a globalstar constellation satellite launched Aug 16, 2026 by GLOBL of US. with a mass of 850.00 kg.

即将过境

Passes for default location (London). Set your location on the main map for personalized predictions.

高度历史

Loading altitude history...

两行轨道根数

1 A0330U 26185F 26251.87087376 .00000245 00000-0 83285-4 0 9991
2 A0330 51.9961 135.5663 0008837 308.9465 51.0704 14.63906749 3480
Epoch: Sep 8, 2026 • Age: 105 hours

当前状态

高度 689.0 km
远地点 / 近地点 N/A
速度 7.51 km/s
星下点 -42.75°S, 3.76°W
发射日期 Aug 16, 2026
运行时间 28 days
类型 weather

技术详情

分类 Payload
质量 850.00 kg
干质量 800.00 kg
总质量 850.00 kg
长度 1.40 m
直径 3.70 m
跨度 14.00 m
形状 Trap Cyl + 2 Pan
制造商 MDARM/RLABLB
平台类型 C-3
阶段状态 In Orbit
所有者/国家 GLOBL/US

Most Searched